EXPRESS 103

Last updated on Mon Jun 22 2026 00:03:07 GMT+0000 (Coordinated Universal Time)

1 45985U 20053A 26172.02420684 -.00000283 00000+0 00000+0 0 9997 2 45985 0.0134 304.7258 0000553 32.8171 36.8941 1.00271909 21682
UTC large
Height (km)
Speed (km/s)
/
Latitude / Longitude
Inclination (degrees)
Orbital Period (minutes)
Azimuth
Elevation
Range (km)
Doppler Factor

Next 0 passes for location: London (51.5072 / 0.1276)

No passes found over London.
EXPRESS 103